Location: Bakov nad Jizerou
(50.4784°N, 14.9394°E)
Time: 08:51:57
(UTC+00:00)

Cosmos 1900 - Visible Passes

Search period start: 28 October 2021 00:00
Search period end: 07 November 2021 00:00
Orbit: 691 x 730 km, 66.1° (Epoch: 27 October)

Date Brightness Start Highest point End Pass type
(mag) Time Alt. Az. Time Alt. Az. Time Alt. Az.
28 Oct 5.3 02:44:57 39° SE 02:45:29 40° ESE 02:50:03 10° NE visible
28 Oct 4.8 04:24:03 18° WSW 04:27:16 41° NW 04:31:54 10° NNE visible
29 Oct 6.7 01:52:12 18° E 01:52:12 18° E 01:54:30 10° ENE visible
29 Oct 4.2 03:31:17 56° WSW 03:32:12 73° NW 03:37:07 10° NE visible
29 Oct 5.7 05:11:03 10° WNW 05:14:47 21° NNW 05:18:32 10° NNE visible
30 Oct 5.2 02:38:24 48° ENE 02:38:24 48° ENE 02:42:10 10° NE visible
30 Oct 5.2 04:17:28 23° WNW 04:19:26 31° NW 04:23:49 10° NNE visible
31 Oct 6.8 01:45:25 18° ENE 01:45:25 18° ENE 01:46:56 10° NE visible
31 Oct 4.5 03:24:29 52° NW 03:24:29 52° NW 03:29:04 10° NNE visible
31 Oct 6.0 05:03:46 10° WNW 05:07:07 18° NNW 05:10:28 10° NNE visible
01 Nov 5.7 02:31:26 34° NE 02:31:26 34° NE 02:34:13 10° NE visible
01 Nov 5.5 04:10:30 23° NW 04:11:39 25° NNW 04:15:42 10° NNE visible
02 Nov 7.1 01:38:19 15° NE 01:38:19 15° NE 01:39:10 10° NE visible
02 Nov 5.3 03:17:23 35° NNW 03:17:23 35° NNW 03:20:59 10° NNE visible
02 Nov 6.2 04:56:32 10° NW 04:59:28 16° NNW 05:02:26 10° NNE visible
03 Nov 6.2 02:24:13 24° NNE 02:24:13 24° NNE 02:26:12 10° NE visible
03 Nov 5.8 04:03:16 20° NW 04:03:55 21° NNW 04:07:37 10° NNE visible
04 Nov 7.3 01:31:00 11° NE 01:31:00 11° NE 01:31:16 10° NE visible
04 Nov 5.8 03:10:03 25° N 03:10:03 25° N 03:12:53 10° NNE visible
04 Nov 6.3 04:49:16 10° NW 04:51:52 14° N 04:54:29 10° NNE visible
05 Nov 6.6 02:16:48 18° NNE 02:16:48 18° NNE 02:18:08 10° NNE visible
05 Nov 6.0 03:55:52 17° NNW 03:56:15 17° NNW 03:59:32 10° NNE visible
06 Nov 6.2 03:02:35 20° N 03:02:35 20° N 03:04:46 10° NNE visible
06 Nov 6.4 04:41:56 10° NW 04:44:17 13° N 04:46:39 10° NNE visible
